Погода в Котлове

Россия / Костромская область     57°48′26″N   42°53′45″E
темп.,
°C
ветер,
м/с
пор.,
м/с
влажн.,
%
обл.,
%
осадки,
мм/ч
давл.,
гПа
погр.,
м
9 марта, вт
вт900:00−14ссз379684 0.1 1006189
03:00−17ссз379687 0.1 1009158
06:00−19ссз379898 0.0 1011159
09:00−18с359569 0.0 1013259
12:00−14ссз249285 0.0 1013477
15:00−12ссз358893 0.1 1015731
18:00−16с3893100 0.1 1017360
21:00−18с3895100 0.1 1019501
10 марта, ср
ср1000:00−21с389795 0.1 1020245
03:00−25с389787 0.1 1022181
06:00−28с389727 0.0 1024160
09:00−24с379513 0.0 1025291
12:00−18с358954 0.0 1025502
15:00−14ссз358227 0.0 1025715
18:00−18зсз36921 0.0 102591
21:00−20зсз38969 0.0 1026160
11 марта, чт
чт1100:00−22сз35981 0.0 102784
03:00−23зсз36980 0.0 1028103
06:00−23зсз38975 0.0 1028171
09:00−17сз48942 0.0 1028262
12:00−11сз479341 0.0 1028387
15:00−8зсз479053 0.0 1027551
18:00−12з359597 0.0 1027100
21:00−16з369758 0.0 1028109
12 марта, пт
пт1200:00−18з349720 0.0 102884
03:00−20зюз339710 0.0 102983
06:00−21зюз36980 0.0 102994
09:00−16юз38870 0.0 1029273
12:00−10юз48800 0.0 1028522
15:00−8юз49770 0.0 1027663
18:00−12ююз38860 0.0 1026180
21:00−13ююз413890 0.0 1026392
13 марта, сб
сб1300:00−15ююз413880 0.0 1026398
03:00−16ю414880 0.0 1026368
06:00−16ю414870 0.0 1024357
09:00−13ю512880 0.0 1023430
12:00−9ю6118766 0.0 1022616
15:00−7ю6118882 0.0 1020902
18:00−8ю51193100 0.5 1019976
21:00−8ю51193100 0.9 1018749